FW3192 Weather Reports


Display with metric or nautical units.
time (UTC)temp
F
wind
direction
speed
MPH
gust
MPH
rain 1hr
in
rain 24hr
in
rain mn
in
humidity
%
barometer
mb
20260504050008 65 233 12.0 17.0 0.00 0.00 0.00 70 1014.1
20260504044515 65 237 11.0 18.0 0.00 0.00 0.00 72 1013.8
20260504043007 65 256 11.0 18.0 0.00 0.00 0.00 72 1013.8
20260504041511 65 257 13.0 16.0 0.00 0.00 0.00 72 1013.7
20260504040106 65 229 11.0 18.0 0.00 0.00 0.00 74 1013.9
20260504034553 65 244 12.0 19.0 0.00 0.00 0.00 73 1013.8
20260504033053 64 232 11.0 18.0 0.00 0.00 0.00 74 1013.8
20260504031550 64 237 12.0 18.0 0.00 0.00 0.00 74 1013.8
20260504030048 64 240 13.0 18.0 0.00 0.00 0.00 74 1014.0
20260504024548 64 228 9.0 14.0 0.00 0.00 0.00 79 1014.1
20260504023047 63 237 10.0 17.0 0.00 0.00 0.00 74 1014.2
20260504021548 64 223 10.0 16.0 0.00 0.00 0.00 77 1014.2
20260504020031 63 230 9.0 21.0 0.00 0.00 0.00 72 1014.2
20260504014537 64 247 12.0 16.0 0.00 0.00 0.00 77 1014.2
20260504013023 63 166 10.0 17.0 0.00 0.00 0.00 78 1014.1
20260504011523 63 239 12.0 17.0 0.00 0.00 0.00 79 1014.1
20260504010017 63 251 7.0 16.0 0.00 0.00 0.00 81 1014.0
20260504004517 62 259 9.0 15.0 0.00 0.00 0.00 81 1013.9
20260504003012 62 214 10.0 17.0 0.00 0.00 0.00 81 1013.6
20260504001510 62 264 10.0 17.0 0.00 0.00 0.00 83 1013.6
20260504000050 62 246 8.0 14.0 0.00 0.00 0.00 84 1013.3
20260503234546 61 255 7.0 15.0 0.00 0.00 0.00 85 1013.2
20260503233028 60 344 10.0 19.0 0.00 0.00 0.00 85 1013.0
20260503231525 60 194 6.0 14.0 0.00 0.00 0.00 86 1012.9
20260503230020 60 255 5.0 15.0 0.00 0.00 0.00 87 1012.6
20260503224518 59 237 7.0 14.0 0.00 0.00 0.00 90 1012.4
20260503223018 58 269 5.0 12.0 0.00 0.00 0.00 90 1012.3
20260503221513 58 302 6.0 13.0 0.00 0.00 0.00 91 1011.9
20260503220011 58 270 7.0 14.0 0.00 0.00 0.00 91 1011.7
20260503214511 58 284 5.0 14.0 0.00 0.00 0.00 89 1011.4
20260503213054 58 266 6.0 12.0 0.00 0.00 0.00 89 1011.4
20260503211554 58 280 4.0 9.0 0.00 0.00 0.00 89 1011.4
20260503210052 58 225 4.0 11.0 0.00 0.00 0.00 89 1011.3
20260503204551 57 261 4.0 10.0 0.00 0.00 0.00 89 1011.2
20260503203055 57 288 6.0 12.0 0.00 0.00 0.00 89 1010.9
20260503201550 57 277 5.0 16.0 0.00 0.00 0.00 90 1010.7
20260503200049 57 285 7.0 17.0 0.00 0.00 0.00 89 1010.7
20260503194548 58 275 8.0 16.0 0.00 0.00 0.00 87 1010.5
20260503193047 58 294 6.0 15.0 0.00 0.00 0.00 87 1010.4
20260503191545 59 230 6.0 16.0 0.00 0.00 0.00 84 1010.4
20260503190046 59 256 9.0 15.0 0.00 0.00 0.00 82 1010.3
20260503184547 59 267 7.0 18.0 0.00 0.00 0.00 82 1010.3
20260503183041 59 260 6.0 13.0 0.00 0.00 0.00 83 1010.3
20260503181541 59 276 8.0 14.0 0.00 0.00 0.00 83 1010.3
20260503180042 59 280 9.0 16.0 0.00 0.00 0.00 83 1010.3
20260503174531 58 294 8.0 15.0 0.00 0.00 0.00 83 1010.3
20260503173026 58 266 8.0 15.0 0.00 0.00 0.00 83 1010.5
20260503171527 58 325 8.0 16.0 0.00 0.00 0.00 84 1010.5
20260503081515 60 309 9.0 15.0 0.00 0.00 0.00 77 1010.1
20260503071551 61 291 13.0 23.0 0.00 0.00 0.00 73 1009.8
20260503060107 61 289 16.0 30.0 0.00 0.00 0.00 75 1009.8
20260503054542 64 293 16.0 27.0 0.00 0.00 0.00 59 1009.3